GREB

Satellite information

Favourite Embed

Satellite Type and Status

PAYLOADIN ORBIT

Key statistics

Satellite GREB at a glance.

Uptime

22457

Days in orbit

Revolutions

≈ 14.0

Per day

Orbit

LEO

Low Earth Orbit

Inclination

69.9

Latest

Satellite identification and parameters

Extended collection of information and parameters for GREB.

Object identification

Identified? True

Debris? False

Object name: GREB

International designator: 1964-001E

Object number (NORAD): 731

Object ID (CCSDS): 731

Country: UNITED STATES OF AMERICA (US)

Current information (Y/N): Y

RCS size: MEDIUM

Orbital parameters

Period: 103.134 minutes

Inclination: 69.9069 deg

SMA: 7284.986 km

Apoapsis: 915.181 km

Periapsis: 898.521 km

RAAN: 291.7782 deg

Eccentricy: 0.0011434

Argument of periapsis: 118.7596 deg

Mean anomaly: 241.4659 deg

Mean motion: 13.96238708 rev/day

Mean motion (dot): -0.00000005 rev/day2

B* drag term: 0.000035303 1/REarth

Two-line elements (TLE)

Creation date: July 5, 2025, 5:45 p.m.

Reference frame: TEME

Reference center: EARTH

Epoch: July 5, 2025, 1:24 p.m. UTC

TLE line 0: 0 GREB

TLE line 1: 1 00731U 64001E 25186.55887799 -.00000005 00000-0 35303-4 0 9996

TLE line 2: 2 00731 69.9069 291.7782 0011434 118.7596 241.4659 13.96238708129198

Live tracking on map

Real-time ground track for satellite GREB.

In-orbit conjunctions

A list of the most updated potential collisions computed for object GREB.

Target Orbit TCA Probability of collision Miss distance Type
COSMOS 1275 DEB LEO 2024-08-18 00:18:49 0.0001098495 814.0 (m) DEBRIS
FENGYUN 1C DEB SSO 2024-07-02 21:45:27 0.0002197688 466.0 (m) DEBRIS

Associated space launch

Poppy was the follow-on ELINT system, which succeeded the Grab ELINT satellite system.

GREB was lifted into orbit during the mission ‘Thor SLV-2A Agena D | Poppy 5A, 5B & 5C’, on board a Thor SLV-2A Agena D space rocket.

The launch took place on Jan. 11, 1964, 8:07 p.m. from Space Launch Complex 1E.

For more information about the launch, click the button.

Launch to space Thor SLV-2A Agena D | Poppy 5A, 5B & 5C
Thor SLV-2A Agena D | Poppy 5A, 5B & 5C

Agency: N/A

Status: Launch Successful

Launch date: Jan. 11, 1964, 8:07 p.m. UTC

Rocket: Thor SLV-2A Agena D

Launch pad: Space Launch Complex 1E

Location: Vandenberg SFB, CA, USA

...

Latest news about this satellite

There are no fresh news available about this satellite. Check back as we update our databases every day.


Newsletter sign-up

Weekly statistics, charts and insights to help you stay on top of the space industry.